OBJECT Q, 61908

Orbit data source: Space-Track

You're viewing an Uncataloged Satellite

Recently launched and/or uncataloged satellites may have evolving metadata. Metadata may include but not limited to: Owner, Maufacturer, Bus, Motor, and Mission.

OBJECT Q, 61908 is a Chinese satellite in SSO that was launched on Mon, 11 Nov 2024 UTC via a LIJIAN-1 launch vehicle from the Jiuquan Satellite Launch Center, China (JSC). Unknown objects in Earth's orbit typically refer to objects detected orbiting the Earth but have not yet been identified or cataloged. These objects could be anything from previously untracked satellites, spent rocket stages, debris from satellite collisions, or even natural meteoroids temporarily captured by Earth's gravity.

Loading next visibility...
OBJECT Q details
Identifier
61908, 2024-205Q
Orbit
SSO
Last TLE update7 hours ago
Origin
Flag of CNSQU/STARV (CN / PRC)
ManufacturerSTARV/SQU
MissionOperational spacecraft
Bus & MotorUnknown
Mass~100 kg wet, ~100 kg dry
Launch date (UTC)
2024-11-11 (1 week ago)
Launch vehicle
LIJIAN-1
Launch site
Jiuquan Satellite Launch Center, China (JSC)
Object typeUnknown
Shape & HBRUnknown
Radar Cross SectionMedium (>0.1 m² and <1 m²)

Expand to show TLE details & history

TLE from 7 hours ago
0 OBJECT Q
1 61908U 24205Q   24326.18670634  .00010723  00000-0  57666-3 0  9995
2 61908  97.4769  38.2001 0014694 252.4687 107.4939 15.14957543  1480
Epoch: 2024-11-21T04:28Z
Definitive object data (Epoch: 2024-11-21T04:28:51.427Z)
Latitude-0.00012°
Longitude-89.68622°
Altitude527.251 km
Speed7.598 km/s
True Right ascension02h 32m 48s
True Declination0° 00' 00"
Sunlit
Object was in full shadow at TLE epoch
Visualization TLE readout
Latitude54.63011°
Longitude101.19121°
Altitude536.204 km
Speed7.596 km/s
Apparent Right ascension18h 09m 13s
Apparent Declination12° 28' 36"
Sunlit
Object is in daylight
Visualization observer readout
Local Sidereal Time08:25:39
Azimuth38.658° NE
Elevation-28.778°
Doppler factor1
Orbital elements
Apogee altitude528.216 km
Perigee altitude507.95 km
Semi-major axis6,896.22 km
Eccentricity0.0014694
Inclination97.4769°
RAAN38.2001°
Arg. of periapsis252.4687°
True anomaly107.6544°
Mean anomaly107.4939°
Eccentric anomaly107.57416°
Mean motion3.78989 °/min
BSTAR0.00057666
Orbital period94.99 mins
Loading maneuver chart data...
Loading historical data...
Loading historical data...
Loading historical data...
Loading historical data...
Loading historical data...
Loading historical data...
Loading historical data...

OBJECT Q Visibility forecast

Observer location: undefined°, undefined

Span
Click to sort rows by Start time (UTC) header in descending order
Start Az.
Max El. time (UTC)
Max El. Az.
Max El.
End time (UTC)
End Az.
7 mins2024-11-21 17:43:19.130Z17.723° NNE2024-11-21 17:46:19.130Z53.731° ENE40.863°2024-11-21 17:50:19.130Z184.635° SSW
4 mins2024-11-22 04:25:19.130Z107.466° ESE2024-11-22 04:26:19.130Z82.844° E25.178°2024-11-22 04:29:19.130Z17.164° NNE
4 mins2024-11-22 05:59:19.130Z236.435° WSW2024-11-22 06:01:19.130Z275.082° WNW16.924°2024-11-22 06:03:19.130Z307.941° NW
|